Weather History for Great Bend, KS

Change the Weather History Date:

Wednesday, January 15, 2014

  Actual Average Record
Temperature  
Mean Temperature 40 °F -  
Max Temperature 55 °F 44 °F - (-1)
Min Temperature 24 °F 20 °F - (-1)
Degree Days  
Heating Degree Days 26    
Moisture  
Dew Point 23 °F    
Average Humidity 58    
Maximum Humidity 80    
Minimum Humidity 33    
Precipitation  
Precipitation 0.00 in - - ()
Sea Level Pressure  
Sea Level Pressure 30.09 in    
Wind  
Wind Speed 10 mph (WSW)    
Max Wind Speed 16 mph    
Max Gust Speed 20 mph    
Visibility 10 miles    
Events      
Averages and records for this station are not official NWS values.
T = Trace of Precipitation, MM = Missing Value Source: NWS Daily Summary

Daily Weather History Graph

Daily Weather History Graph

Search for Another Location

Airport:

Trip Planner

Search our weather history database for the weather conditions in past years. The results will help you decide how hot, cold, wet, or windy it might be!

Date:

Astronomy

Jan. 15, 2014 Rise Set
Actual Time 7:51 AM CST 5:39 PM CST
Civil Twilight 7:22 AM CST 6:08 PM CST
Nautical Twilight 6:49 AM CST 6:40 PM CST
Astronomical Twilight 6:17 AM CST 7:12 PM CST
Moon 5:37 PM CST (1/15) 7:08 AM CST (1/15)
Length of Visible Light 10h 45m
Length of Day
9h 48m
Full, 100% of the Moon is Illuminated
Jan 15
Full
Jan 15
Full
Jan 23
Last Quarter
Jan 30
New
Feb 6
First Quarter

Hourly Weather History & Observations

Time (CST) Temp. Windchill Dew Point Humidity Pressure Visibility Wind Dir Wind Speed Gust Speed Precip Events Conditions
12:15 AM 28.4 °F 19.7 °F 19.4 °F 69% 30.32 in 10.0 mi NW 9.2 mph - N/A   Mostly Cloudy
12:35 AM 28.4 °F 19.1 °F 19.4 °F 69% 30.31 in 10.0 mi NW 10.4 mph - N/A   Clear
12:55 AM 28.4 °F 19.1 °F 19.4 °F 69% 30.31 in 10.0 mi NW 10.4 mph - N/A   Clear
1:15 AM 28.4 °F 19.7 °F 19.4 °F 69% 30.31 in 10.0 mi NW 9.2 mph - N/A   Clear
1:35 AM 26.6 °F 18.2 °F 17.6 °F 69% 30.30 in 10.0 mi WNW 8.1 mph - N/A   Clear
1:55 AM 26.6 °F 18.2 °F 19.4 °F 74% 30.30 in 10.0 mi WNW 8.1 mph - N/A   Clear
2:15 AM 24.8 °F 15.3 °F 17.6 °F 74% 30.30 in 10.0 mi WNW 9.2 mph - N/A   Clear
2:35 AM 24.8 °F 17.9 °F 17.6 °F 74% 30.29 in 10.0 mi WNW 5.8 mph - N/A   Clear
2:55 AM 24.8 °F 16.9 °F 17.6 °F 74% 30.29 in 10.0 mi WNW 6.9 mph - N/A   Scattered Clouds
3:15 AM 26.6 °F 18.2 °F 19.4 °F 74% 30.29 in 10.0 mi WNW 8.1 mph - N/A   Overcast
3:35 AM 24.8 °F 16.1 °F 19.4 °F 80% 30.28 in 10.0 mi West 8.1 mph - N/A   Scattered Clouds
3:55 AM 26.6 °F 17.5 °F 19.4 °F 74% 30.27 in 10.0 mi West 9.2 mph - N/A   Clear
4:15 AM 24.8 °F 17.9 °F 17.6 °F 74% 30.26 in 10.0 mi West 5.8 mph - N/A   Clear
4:35 AM 24.8 °F 17.9 °F 17.6 °F 74% 30.26 in 10.0 mi West 5.8 mph - N/A   Scattered Clouds
4:55 AM 26.6 °F 18.2 °F 19.4 °F 74% 30.27 in 10.0 mi West 8.1 mph - N/A   Overcast
5:15 AM 28.4 °F 21.2 °F 21.2 °F 74% 30.27 in 10.0 mi West 6.9 mph - N/A   Overcast
5:35 AM 28.4 °F 19.7 °F 21.2 °F 74% 30.26 in 10.0 mi West 9.2 mph - N/A   Overcast
5:55 AM 28.4 °F 19.7 °F 21.2 °F 74% 30.25 in 10.0 mi West 9.2 mph - N/A   Overcast
6:15 AM 26.6 °F 18.2 °F 19.4 °F 74% 30.26 in 10.0 mi West 8.1 mph - N/A   Overcast
6:35 AM 28.4 °F 21.2 °F 21.2 °F 74% 30.26 in 10.0 mi WSW 6.9 mph - N/A   Overcast
6:55 AM 28.4 °F 21.2 °F 21.2 °F 74% 30.25 in 10.0 mi WSW 6.9 mph - N/A   Overcast
7:15 AM 28.4 °F 20.4 °F 21.2 °F 74% 30.24 in 10.0 mi SW 8.1 mph - N/A   Overcast
7:35 AM 28.4 °F 22.2 °F 21.2 °F 74% 30.24 in 10.0 mi WSW 5.8 mph - N/A   Overcast
7:55 AM 28.4 °F 22.2 °F 21.2 °F 74% 30.23 in 10.0 mi SW 5.8 mph - N/A   Overcast
8:15 AM 28.4 °F 21.2 °F 23.0 °F 80% 30.22 in 10.0 mi SSW 6.9 mph - N/A   Overcast
8:35 AM 30.2 °F 23.4 °F 21.2 °F 69% 30.23 in 10.0 mi SW 6.9 mph - N/A   Overcast
8:55 AM 30.2 °F 23.4 °F 23.0 °F 75% 30.22 in 10.0 mi SW 6.9 mph - N/A   Overcast
9:15 AM 30.2 °F 21.9 °F 23.0 °F 75% 30.21 in 10.0 mi SW 9.2 mph - N/A   Overcast
9:35 AM 32.0 °F 23.0 °F 24.8 °F 75% 30.21 in 10.0 mi WSW 11.5 mph - N/A   Overcast
9:55 AM 33.8 °F 25.8 °F 24.8 °F 70% 30.20 in 10.0 mi WSW 10.4 mph - N/A   Overcast
10:15 AM 35.6 °F 28.0 °F 24.8 °F 65% 30.19 in 10.0 mi WSW 10.4 mph - N/A   Overcast
10:35 AM 35.6 °F 28.6 °F 24.8 °F 65% 30.19 in 10.0 mi WSW 9.2 mph - N/A   Overcast
10:55 AM 37.4 °F 30.8 °F 24.8 °F 60% 30.16 in 10.0 mi WSW 9.2 mph - N/A   Overcast
11:15 AM 39.2 °F 33.0 °F 24.8 °F 56% 30.15 in 10.0 mi SW 9.2 mph - N/A   Overcast
11:35 AM 41.0 °F 35.2 °F 24.8 °F 53% 30.14 in 10.0 mi SW 9.2 mph - N/A   Overcast
11:55 AM 42.8 °F 37.5 °F 26.6 °F 53% 30.12 in 10.0 mi WSW 9.2 mph - N/A   Mostly Cloudy
12:15 PM 44.6 °F 38.4 °F 24.8 °F 46% 30.10 in 10.0 mi WSW 12.7 mph - N/A   Scattered Clouds
12:35 PM 46.4 °F 40.7 °F 24.8 °F 43% 30.08 in 10.0 mi SW 12.7 mph - N/A   Overcast
12:55 PM 48.2 °F - 24.8 °F 40% 30.06 in 10.0 mi SW 12.7 mph - N/A   Overcast
1:15 PM 48.2 °F - 26.6 °F 43% 30.05 in 10.0 mi WSW 12.7 mph - N/A   Scattered Clouds
1:35 PM 48.2 °F - 24.8 °F 40% 30.03 in 10.0 mi WSW 13.8 mph - N/A   Clear
1:55 PM 50.0 °F - 24.8 °F 37% 30.02 in 10.0 mi WSW 15.0 mph 19.6 mph N/A   Clear
2:15 PM 51.8 °F - 26.6 °F 38% 30.00 in 10.0 mi WSW 13.8 mph - N/A   Clear
2:35 PM 51.8 °F - 26.6 °F 38% 29.98 in 10.0 mi WSW 13.8 mph - N/A   Clear
2:55 PM 53.6 °F - 26.6 °F 35% 29.96 in 10.0 mi SW 15.0 mph - N/A   Clear
3:15 PM 55.4 °F - 26.6 °F 33% 29.95 in 10.0 mi WSW 13.8 mph - N/A   Clear
3:35 PM 55.4 °F - 26.6 °F 33% 29.94 in 10.0 mi WSW 11.5 mph - N/A   Clear
3:55 PM 55.4 °F - 26.6 °F 33% 29.93 in 10.0 mi WSW 13.8 mph - N/A   Clear
4:15 PM 55.4 °F - 26.6 °F 33% 29.93 in 10.0 mi WSW 11.5 mph - N/A   Clear
4:35 PM 55.4 °F - 26.6 °F 33% 29.92 in 10.0 mi WSW 12.7 mph - N/A   Clear
4:55 PM 53.6 °F - 26.6 °F 35% 29.92 in 10.0 mi SW 9.2 mph - N/A   Clear
5:15 PM 48.2 °F - 26.6 °F 43% 29.90 in 10.0 mi SW 9.2 mph - N/A   Clear
5:35 PM 46.4 °F 41.9 °F 26.6 °F 46% 29.91 in 10.0 mi SW 9.2 mph - N/A   Clear
5:55 PM 44.6 °F 40.2 °F 26.6 °F 49% 29.90 in 10.0 mi SW 8.1 mph - N/A   Clear
6:15 PM 42.8 °F 37.0 °F 26.6 °F 53% 29.90 in 10.0 mi WSW 10.4 mph - N/A   Clear
6:35 PM 42.8 °F 36.6 °F 26.6 °F 53% 29.90 in 10.0 mi SW 11.5 mph - N/A   Clear
6:55 PM 42.8 °F 37.0 °F 26.6 °F 53% 29.89 in 10.0 mi SW 10.4 mph - N/A   Clear
7:15 PM 42.8 °F 36.2 °F 26.6 °F 53% 29.88 in 10.0 mi SW 12.7 mph - N/A   Partly Cloudy
7:35 PM 42.8 °F 35.8 °F 24.8 °F 49% 29.88 in 10.0 mi SW 13.8 mph - N/A   Scattered Clouds
7:55 PM 41.0 °F 33.9 °F 24.8 °F 53% 29.88 in 10.0 mi SW 12.7 mph - N/A   Clear
8:15 PM 41.0 °F 33.5 °F 24.8 °F 53% 29.87 in 10.0 mi SW 13.8 mph - N/A   Clear
8:35 PM 41.0 °F 33.1 °F 24.8 °F 53% 29.86 in 10.0 mi SW 15.0 mph - N/A   Clear
8:55 PM 41.0 °F 32.8 °F 24.8 °F 53% 29.86 in 10.0 mi WSW 16.1 mph - N/A   Clear
9:15 PM 42.8 °F 35.8 °F 24.8 °F 49% 29.87 in 10.0 mi West 13.8 mph - N/A   Clear
9:35 PM 39.2 °F 31.6 °F 23.0 °F 52% 29.87 in 10.0 mi West 12.7 mph - N/A   Clear
9:55 PM 39.2 °F 32.0 °F 23.0 °F 52% 29.88 in 10.0 mi West 11.5 mph - N/A   Clear
10:15 PM 39.2 °F 31.6 °F 23.0 °F 52% 29.88 in 10.0 mi West 12.7 mph - N/A   Clear
10:35 PM 37.4 °F 29.8 °F 21.2 °F 52% 29.89 in 10.0 mi West 11.5 mph - N/A   Clear
10:55 PM 39.2 °F 32.0 °F 23.0 °F 52% 29.89 in 10.0 mi WNW 11.5 mph - N/A   Clear
11:15 PM 39.2 °F 32.0 °F 21.2 °F 49% 29.90 in 10.0 mi WNW 11.5 mph - N/A   Clear
11:35 PM 37.4 °F 30.8 °F 21.2 °F 52% 29.90 in 10.0 mi WNW 9.2 mph - N/A   Clear
11:55 PM 37.4 °F 30.3 °F 21.2 °F 52% 29.90 in 10.0 mi WNW 10.4 mph - N/A   Clear